Miscellaneous Local Product
Issued by NWS Hastings, NE

Home | Current Version | Previous Version | Text Only | Print | Product List | Glossary On
Versions: 1 2 3 4 5 6 7 8 9 10 11 12 13 14 15 16 17 18 19 20 21 22 23 24 25 26 27 28 29 30 31 32 33 34 35 36 37 38 39 40 41 42 43 44 45 46 47 48 49 50
000
AXUS43 KGID 202202
MISGRI

GID CWA HOURLY WEATHER ROUNDUP
NATIONAL WEATHER SERVICE HASTINGS NE
400 PM CST SAT DEC 20 2014

NOTE: "FAIR" INDICATES FEW OR NO CLOUDS BELOW 12,000 FEET WITH NO
SIGNIFICANT WEATHER AND/OR OBSTRUCTIONS TO VISIBILITY.

...SOUTH CENTRAL NEBRASKA...

CITY           SKY/WX    TMP DP  RH WIND       PRES   REMARKS
GRAND ISLAND   CLOUDY    37  33  85 SE6       30.00R WCI  32
HASTINGS       MOCLDY    43  33  68 S6        29.98R
KEARNEY        CLOUDY    37  30  75 S9        29.98R WCI  31
ORD            NOT AVBL
YORK           CLOUDY    32  32 100 CALM      30.02S FOG
AURORA         CLOUDY    33  33 100 SE7       30.00S FOG     WCI  27
LEXINGTON      PTSUNNY   40  33  74 SW6       29.96R
HOLDREGE       CLOUDY    40  32  75 S3        29.97S
HEBRON         MOCLDY    41  35  79 S5        30.03R

...NEBRASKA PANHANDLE...

CITY           SKY/WX    TMP DP  RH WIND       PRES   REMARKS
CHADRON        SUNNY     46  30  53 S3        29.90S
ALLIANCE       SUNNY     40  30  67 W6        29.91S
SCOTTSBLUFF    SUNNY     43  29  57 CALM      29.92S
SIDNEY         MOSUNNY   46  28  49 VRB3      29.94S

...WESTERN AND NORTH CENTRAL NEBRASKA...

CITY           SKY/WX    TMP DP  RH WIND       PRES   REMARKS
VALENTINE      MOCLDY    40  28  62 W3        29.90R
AINSWORTH      CLOUDY    36  29  77 SW5       29.91R WCI  32
ONEILL         CLOUDY    31  30  95 S7        29.94F WCI  24
BROKEN BOW     MOCLDY    40  32  73 CALM      29.93R
IMPERIAL       PTSUNNY   46  28  49 W6        29.96S
NORTH PLATTE   CLOUDY    38  28  67 W5        29.94F WCI  34
MCCOOK         CLOUDY    48  29  47 CALM      29.97R

...EASTERN NEBRASKA...

CITY           SKY/WX    TMP DP  RH WIND       PRES   REMARKS
NORFOLK        CLOUDY    33  31  92 SE9       30.01S FOG     WCI  25
SO SIOUX CITY  CLOUDY    33  30  88 S12       30.06R WCI  24
TEKAMAH        CLOUDY    33  31  92 SE12      30.07R FOG     WCI  24
COLUMBUS       CLOUDY    32  28  86 S8        30.05R WCI  25
ALBION         CLOUDY    32  31  95 SE8       30.00S FOG     WCI  25
OMAHA EPPLEY   CLOUDY    34  32  92 S10       30.09R FOG     WCI  26
OFFUTT AFB     CLOUDY    34  32  94 SE6       30.08R WCI  29
MILLARD        CLOUDY    34  32  93 S7        30.08R FOG     WCI  28
LINCOLN        CLOUDY    35  31  85 S6        30.06R FOG     WCI  30
NEBRASKA CITY  CLOUDY    36  35  96 S5        30.07R FOG     WCI  32
BEATRICE       CLOUDY    36  33  89 S7        30.05R FOG     WCI  30
FALLS CITY     CLOUDY    36  33  89 CALM      30.09S FOG

...NORTHERN KANSAS...

CITY           SKY/WX    TMP DP  RH WIND       PRES   REMARKS
GOODLAND       PTSUNNY   54  27  35 NE5       29.97R
HILL CITY      PTSUNNY   54  32  43 S3        29.98R
NORTON         CLEAR     50  28  43 CALM      29.96S
PHILLIPSBURG   SUNNY     54  34  47 SE3       29.99R
SMITH CENTER   SUNNY     48  37  66 SE8       29.99S
BELOIT         SUNNY     45  37  76 SE7       30.02R
HAYS           MOSUNNY   52  34  50 S9        30.00S
RUSSELL        MOSUNNY   50  41  71 S15       29.99S
CONCORDIA      PTCLDY    42  37  82 SW3       30.03R
SALINA         SUNNY     51  41  68 S13       30.04S
TOPEKA         CLOUDY    50  39  66 S9        30.09F



USA.gov is the U.S. government's official web portal to all federal, state and local government web resources and services.